When you browse on this site, cookies collect data to enhance your experience and personalize the content and advertising you see.
Visit our Privacy Policy to learn more. By continuing to use the site, you agree to this use of cookies and data.
  • en Suisse
  • Liste des pays
  • À 7 jours
  • Température de l'eau
  • Carte météo
  • Widgets météo
  • user-avatar
    Se connecter

    Météo par heure à Tovstodubove

    Ce jour, 21 Août, Mercredi

    Heure Température Précipitation Vent Pression Humidité
    00:00 +20°C° 0 mm 1 m/s 749 mmHg 66%
    01:00 +20°C° 0 mm 1 m/s 749 mmHg 67%
    02:00 +20°C° 0 mm 1 m/s 749 mmHg 68%
    03:00 +20°C° 0 mm 1 m/s 749 mmHg 69%
    04:00 +19°C° 0 mm 1 m/s 749 mmHg 70%
    05:00 +19°C° 0 mm 1 m/s 749 mmHg 72%
    06:00 +21°C° 0 mm 1 m/s 749 mmHg 69%
    07:00 +21°C° 0 mm 2 m/s 749 mmHg 66%
    08:00 +24°C° 0 mm 2 m/s 750 mmHg 63%
    09:00 +25°C° 0 mm 2 m/s 749 mmHg 60%
    10:00 +27°C° 0 mm 2 m/s 749 mmHg 57%
    11:00 +28°C° 0 mm 2 m/s 749 mmHg 54%
    12:00 +28°C° 0 mm 2 m/s 749 mmHg 53%
    13:00 +29°C° 0 mm 2 m/s 749 mmHg 52%
    14:00 +29°C° 0 mm 2 m/s 749 mmHg 51%
    15:00 +29°C° 0 mm 2 m/s 749 mmHg 55%
    16:00 +29°C° 0 mm 2 m/s 748 mmHg 59%
    17:00 +28°C° 0 mm 1 m/s 748 mmHg 62%
    18:00 +26°C° 0 mm 1 m/s 748 mmHg 66%
    19:00 +25°C° 0 mm 1 m/s 748 mmHg 70%
    20:00 +23°C° 0 mm 1 m/s 748 mmHg 73%
    21:00 +22°C° 0 mm 1 m/s 748 mmHg 75%
    22:00 +22°C° 0 mm 1 m/s 748 mmHg 77%
    23:00 +21°C° 0 mm 1 m/s 748 mmHg 79%

    Demain, 22 Août, Jeudi

    Heure Température Précipitation Vent Pression Humidité
    00:00 +21°C° 0 mm 1 m/s 748 mmHg 81%
    01:00 +20°C° 0 mm 1 m/s 748 mmHg 83%
    02:00 +20°C° 0 mm 1 m/s 748 mmHg 85%
    03:00 +20°C° 0 mm 1 m/s 747 mmHg 86%
    04:00 +20°C° 0 mm 1 m/s 747 mmHg 87%
    05:00 +17°C° 0 mm 0 m/s 747 mmHg 87%
    06:00 +21°C° 0 mm 1 m/s 747 mmHg 81%
    07:00 +23°C° 0 mm 1 m/s 747 mmHg 75%
    08:00 +25°C° 0 mm 1 m/s 747 mmHg 69%
    09:00 +26°C° 0 mm 1 m/s 747 mmHg 66%
    10:00 +27°C° 0 mm 1 m/s 747 mmHg 62%
    11:00 +28°C° 0 mm 1 m/s 747 mmHg 58%
    12:00 +28°C° 0 mm 1 m/s 747 mmHg 56%
    13:00 +29°C° 0 mm 1 m/s 747 mmHg 55%
    14:00 +29°C° 0 mm 1 m/s 747 mmHg 53%
    15:00 +28°C° 0.1 mm 2 m/s 747 mmHg 59%
    16:00 +28°C° 0.1 mm 3 m/s 747 mmHg 65%
    17:00 +27°C° 0.1 mm 3 m/s 748 mmHg 71%
    18:00 +25°C° 0.1 mm 4 m/s 748 mmHg 78%
    19:00 +22°C° 0.1 mm 5 m/s 748 mmHg 85%
    20:00 +20°C° 0.1 mm 5 m/s 748 mmHg 92%
    21:00 +19°C° 0.1 mm 5 m/s 748 mmHg 92%
    22:00 +19°C° 0.1 mm 5 m/s 749 mmHg 93%
    23:00 +17°C° 0.1 mm 5 m/s 749 mmHg 94%

    Après-demain, 23 Août, Vendredi

    Heure Température Précipitation Vent Pression Humidité
    00:00 +17°C° 0.2 mm 5 m/s 749 mmHg 93%
    01:00 +16°C° 0.2 mm 5 m/s 749 mmHg 93%
    02:00 +16°C° 0.2 mm 5 m/s 749 mmHg 92%
    03:00 +16°C° 0 mm 5 m/s 749 mmHg 92%
    04:00 +17°C° 0 mm 4 m/s 749 mmHg 91%
    05:00 +15°C° 0 mm 4 m/s 749 mmHg 91%
    06:00 +16°C° 0.1 mm 5 m/s 750 mmHg 88%
    07:00 +16°C° 0.1 mm 5 m/s 750 mmHg 86%
    08:00 +17°C° 0.1 mm 5 m/s 750 mmHg 83%
    09:00 +19°C° 0.3 mm 5 m/s 750 mmHg 80%
    10:00 +20°C° 0.3 mm 5 m/s 750 mmHg 77%
    11:00 +22°C° 0.3 mm 5 m/s 750 mmHg 73%
    12:00 +22°C° 0.2 mm 5 m/s 750 mmHg 71%
    13:00 +23°C° 0.2 mm 5 m/s 750 mmHg 69%
    14:00 +23°C° 0.2 mm 5 m/s 750 mmHg 67%
    15:00 +23°C° 0 mm 5 m/s 750 mmHg 68%
    16:00 +23°C° 0 mm 5 m/s 750 mmHg 68%
    17:00 +22°C° 0 mm 5 m/s 750 mmHg 69%
    18:00 +21°C° 0 mm 5 m/s 750 mmHg 72%
    19:00 +19°C° 0 mm 4 m/s 750 mmHg 74%
    20:00 +18°C° 0 mm 4 m/s 750 mmHg 77%
    21:00 +17°C° 0 mm 4 m/s 750 mmHg 79%
    22:00 +17°C° 0 mm 4 m/s 750 mmHg 81%
    23:00 +15°C° 0 mm 4 m/s 751 mmHg 83%

    24 Août, Samedi

    Heure Température Précipitation Vent Pression Humidité
    00:00 +14°C° 0 mm 4 m/s 751 mmHg 85%
    01:00 +14°C° 0 mm 4 m/s 751 mmHg 87%
    02:00 +13°C° 0 mm 4 m/s 751 mmHg 89%
    03:00 +13°C° 0 mm 4 m/s 751 mmHg 90%
    04:00 +13°C° 0 mm 4 m/s 751 mmHg 90%
    05:00 +12°C° 0 mm 3 m/s 751 mmHg 91%
    06:00 +14°C° 0 mm 4 m/s 751 mmHg 85%
    07:00 +15°C° 0 mm 4 m/s 751 mmHg 78%
    08:00 +18°C° 0 mm 4 m/s 751 mmHg 72%
    09:00 +20°C° 0 mm 4 m/s 751 mmHg 66%
    10:00 +21°C° 0 mm 4 m/s 751 mmHg 60%
    11:00 +23°C° 0 mm 4 m/s 751 mmHg 54%
    12:00 +24°C° 0 mm 3 m/s 751 mmHg 51%
    13:00 +25°C° 0 mm 3 m/s 751 mmHg 48%
    14:00 +25°C° 0 mm 3 m/s 750 mmHg 46%
    15:00 +25°C° 0 mm 3 m/s 750 mmHg 49%
    16:00 +24°C° 0 mm 2 m/s 750 mmHg 53%
    17:00 +24°C° 0 mm 2 m/s 749 mmHg 57%
    18:00 +21°C° 0 mm 2 m/s 749 mmHg 60%
    19:00 +19°C° 0 mm 2 m/s 749 mmHg 64%
    20:00 +17°C° 0 mm 2 m/s 749 mmHg 68%
    21:00 +16°C° 0 mm 2 m/s 749 mmHg 70%
    22:00 +16°C° 0 mm 2 m/s 749 mmHg 72%
    23:00 +15°C° 0 mm 2 m/s 749 mmHg 75%

    25 Août, Dimanche

    Heure Température Précipitation Vent Pression Humidité
    00:00 +15°C° 0 mm 2 m/s 749 mmHg 77%
    01:00 +14°C° 0 mm 2 m/s 749 mmHg 79%
    02:00 +14°C° 0 mm 2 m/s 749 mmHg 80%
    03:00 +14°C° 0 mm 2 m/s 749 mmHg 81%
    04:00 +13°C° 0 mm 2 m/s 749 mmHg 82%
    05:00 +13°C° 0 mm 2 m/s 749 mmHg 83%
    06:00 +15°C° 0 mm 2 m/s 749 mmHg 77%
    07:00 +17°C° 0 mm 2 m/s 749 mmHg 72%
    08:00 +19°C° 0 mm 2 m/s 749 mmHg 66%
    09:00 +20°C° 0 mm 2 m/s 749 mmHg 60%
    10:00 +23°C° 0 mm 2 m/s 749 mmHg 54%
    11:00 +24°C° 0 mm 2 m/s 749 mmHg 49%
    12:00 +25°C° 0 mm 2 m/s 749 mmHg 47%
    13:00 +25°C° 0 mm 2 m/s 749 mmHg 46%
    14:00 +26°C° 0 mm 2 m/s 749 mmHg 44%
    15:00 +25°C° 0 mm 2 m/s 749 mmHg 48%
    16:00 +25°C° 0 mm 2 m/s 749 mmHg 53%
    17:00 +24°C° 0 mm 2 m/s 748 mmHg 57%
    18:00 +21°C° 0 mm 2 m/s 749 mmHg 62%
    19:00 +19°C° 0 mm 2 m/s 749 mmHg 67%
    20:00 +17°C° 0 mm 2 m/s 749 mmHg 72%
    21:00 +17°C° 0 mm 2 m/s 749 mmHg 75%
    22:00 +16°C° 0 mm 2 m/s 749 mmHg 77%
    23:00 +16°C° 0 mm 2 m/s 750 mmHg 80%

    26 Août, Lundi

    Heure Température Précipitation Vent Pression Humidité
    00:00 +15°C° 0 mm 2 m/s 750 mmHg 83%
    01:00 +14°C° 0 mm 3 m/s 750 mmHg 86%
    02:00 +14°C° 0 mm 3 m/s 750 mmHg 89%
    03:00 +13°C° 0 mm 3 m/s 750 mmHg 91%
    04:00 +13°C° 0 mm 3 m/s 750 mmHg 93%
    05:00 +13°C° 0 mm 3 m/s 750 mmHg 95%
    06:00 +16°C° 0 mm 3 m/s 751 mmHg 89%
    07:00 +17°C° 0 mm 3 m/s 751 mmHg 83%
    08:00 +19°C° 0 mm 4 m/s 751 mmHg 78%
    09:00 +20°C° 0 mm 4 m/s 751 mmHg 71%
    10:00 +21°C° 0 mm 4 m/s 751 mmHg 65%
    11:00 +22°C° 0 mm 4 m/s 752 mmHg 59%
    12:00 +23°C° 0 mm 4 m/s 751 mmHg 56%
    13:00 +23°C° 0 mm 4 m/s 751 mmHg 53%
    14:00 +25°C° 0 mm 4 m/s 751 mmHg 50%
    15:00 +24°C° 0 mm 3 m/s 751 mmHg 54%
    16:00 +24°C° 0 mm 3 m/s 750 mmHg 57%
    17:00 +23°C° 0 mm 2 m/s 750 mmHg 61%
    18:00 +20°C° 0 mm 2 m/s 750 mmHg 63%
    19:00 +19°C° 0 mm 3 m/s 750 mmHg 66%
    20:00 +17°C° 0 mm 3 m/s 750 mmHg 69%
    21:00 +16°C° 0 mm 3 m/s 750 mmHg 69%
    22:00 +16°C° 0 mm 3 m/s 750 mmHg 70%
    23:00 +14°C° 0 mm 3 m/s 750 mmHg 70%
    Voir plus